244  
ASUS43 KIWX 200610  
RWRIWX  
 
KIWX WEATHER ROUNDUP  
NATIONAL WEATHER SERVICE NORTHERN INDIANA  
200 AM EDT SAT OCT 20 2018  
 
NOTE: "FAIR" INDICATES FEW OR NO CLOUDS BELOW 12,000 FEET WITH NO  
SIGNIFICANT WEATHER AND/OR S TO VISIBILITY
.  
 
* THESE STATIONS ARE NOT UNDER NWS QUALITY CONTROL. THEY ALSO MAY NOT  
REPORT WEATHER SUCH AS PRECIPITATION OR FOG.
 
 
INZ001>027-200700-  
NORTHERN INDIANA  
 
CITY SKY/WX TMP DP RH WIND PRES REMARKS
 
GARY* FAIR 52 49 92 W8 29.87S  
VALPARAISO FAIR 51 46 83 W10 29.86S  
6HR MIN TEMP: 51; 6HR MAX TEMP: 53;  
 
MICHIGAN CITY* FAIR 52 46 82 W8 29.84S  
LAPORTE* FAIR 49 47 93 W9 29.85R  
6HR MIN TEMP: 49; 6HR MAX TEMP: 51;  
 
KNOX* FAIR 50 45 81 W14 29.85S  
SOUTH BEND FAIR 45 44 97 W7 29.83S  
6HR MIN TEMP: 45; 6HR MAX TEMP: 50; 6HR PCP: 0.01;  
 
GOSHEN FAIR 50 48 93 W16 29.82R  
6HR MIN TEMP: 47; 6HR MAX TEMP: 51; 6HR PCP: TRACE;  
 
MONTICELLO* FAIR 50 46 85 SW9 29.88S  
6HR MIN TEMP: 50; 6HR MAX TEMP: 52;  
 
LOGANSPORT* CLOUDY 50 46 87 W14 29.89R  
ROCHESTER* CLOUDY 54 46 76 W10G17 29.86S  
WARSAW* MOCLDY 50 46 87 W12 29.83S  
KENDALLVILLE* CLOUDY 51 45 80 W16 29.81S  
AUBURN* CLOUDY 50 46 87 W8 29.82S  
FORT WAYNE CLOUDY 51 47 86 W18 29.84S  
6HR MIN TEMP: 50; 6HR MAX TEMP: 52; 6HR PCP: TRACE;  
 
HUNTINGTON* CLOUDY 50 46 84 W14 29.85S  
6HR MIN TEMP: 48; 6HR MAX TEMP: 51;  
 
PERU/GRISSOM CLOUDY 52 49 91 W18 29.86F  
6HR MIN TEMP: 50; 6HR MAX TEMP: 52;  
 

 
INZ028>050-200700-  
CENTRAL INDIANA  
 
CITY SKY/WX TMP DP RH WIND PRES REMARKS
 
LAFAYETTE FAIR 50 47 89 SW9 29.91S  
6HR MIN TEMP: 50; 6HR MAX TEMP: 51;  
 
KOKOMO* CLOUDY 51 47 86 SW16G23 29.89S  
6HR MIN TEMP: 50; 6HR MAX TEMP: 51;  
 
MUNCIE* CLOUDY 51 46 83 W10G23 29.89S  
6HR MIN TEMP: 49; 6HR MAX TEMP: 51;  
 
INDIANAPOLIS CLOUDY 50 48 93 SW15 29.94F  
6HR MIN TEMP: 47; 6HR MAX TEMP: 50; 6HR PCP: TRACE;  
 

 
MIZ043>046-050>051-056>058-064>065-071>073-077>080-200700-  
SOUTHWEST LOWER MICHIGAN  
 
CITY SKY/WX TMP DP RH WIND PRES REMARKS
 
BATTLE CREEK N/A N/A N/A N/A MISG 29.77R  
BENTON HARBOR FAIR 55 48 77 W14G22 29.80S  
6HR MIN TEMP: 51; 6HR MAX TEMP: 55; 6HR PCP: 0.01;  
 
COLDWATER* CLOUDY 51 49 93 W13 29.78S  
6HR MIN TEMP: 47; 6HR MAX TEMP: 51;  
 
HILLSDALE* CLOUDY 50 46 87 W9 29.76S  
HOLLAND FAIR 54 46 74 W7G16 29.77R  
6HR MIN TEMP: 52; 6HR MAX TEMP: 56; 6HR PCP: 0.01;  
 
GRAND RAPIDS FAIR 52 48 86 W9 29.74R  
6HR MIN TEMP: 48; 6HR MAX TEMP: 55; 6HR PCP: 0.07;  
 
KALAMAZOO FAIR 53 49 86 W8 29.78R  
6HR MIN TEMP: 47; 6HR MAX TEMP: 54; 6HR PCP: TRACE;  
 
STURGIS* CLOUDY 51 47 84 W9 29.79S  
6HR MIN TEMP: 47; 6HR MAX TEMP: 52;  
 
THREE RIVERS* CLOUDY 51 47 89 CALM 29.79S  
6HR MIN TEMP: 46; 6HR MAX TEMP: 51;  
 

 
OHZ001>008-015>018-024>025-200700-  
NORTHWEST OHIO  
 
CITY SKY/WX TMP DP RH WIND PRES REMARKS
 
WAUSEON* CLOUDY 50 50 100 SW14G21 29.78S  
DEFIANCE CLOUDY 50 45 83 SW8G17 29.81F  
6HR MIN TEMP: 50; 6HR MAX TEMP: 51;  
 
FINDLAY CLOUDY 50 46 86 SW15G23 29.82F  
6HR MIN TEMP: 50; 6HR MAX TEMP: 53;  
 
OTTAWA* CLOUDY 46 43 87 SW14 29.84F  
TOLEDO EXPRESS LGT RAIN 51 44 77 SW15 29.78F  
6HR MIN TEMP: 51; 6HR MAX TEMP: 53; 6HR PCP: TRACE;  
 
LIMA CLOUDY 50 45 83 SW17G23 29.84F  
6HR MIN TEMP: 48; 6HR MAX TEMP: 50;  
 

 
AND FOR LAKE MICHIGAN COASTAL AND OPEN LAKE BUOY OBSERVATIONS  
 
STATION/POSITION TEMP WIND PRES VSBY WAVE
 
AIR SEA DIR/SP/G HT/PER  
(F) (DEG/KT/KT) (MB) (MI) (FT/S)  
CALUMET HARBOR 51 240/ 5/ 8 1010.6R  
MICHIGAN CITY 55 240/ 26/ 29 N/A  
BURNS HARBOR 55 260/ 9/ 12 1011.2S  
SAINT JOSEPH 57 290/ 15/ 19 1010.5  
SOUTH LAKE BUOY 56 56 290/ 17/ 21 1008.7R 4/ 5  
4 MI NW BRIDGMAN 56 57 310/ 17/ 21 1010.0 5/ 5  
MICHIGAN CITY 55 57 290/ 16/ 21 N/A 4/ 4  
 

 

 
 
 
CLICK HERE TO GO TO PREVIOUS BULLETINS.

The Nexlab IN Page
The Nexlab OH Page
The Nexlab MI Page Main Text Page